Find STARLINK-37880

NORAD ID: 799500976 Int'l Des: 2026-135A Constellation: starlink operational

Aktuelle Ansicht

3D-Globus wird geladen...

About STARLINK-37880

STARLINK-37880 (NORAD 799500976) is a starlink constellation satellite launched Jun 8, 2026

Über STARLINK-37880

Beschreibung wird geladen...

Nächste Überflüge

Passes for default location (London). Set your location on the main map for personalized predictions.

Höhenverlauf

Loading altitude history...

Zweizeiliger Elementsatz

1 99999C 2026135A 26167.11854167 .00409860 00000-0 637830-4 0 1674
2 99999 97.2796 193.9280 0010493 266.5280 49.2175 16.03783304 19
Epoch: 16. Juni 2026 • Age: 6 hours